Meteo pe oră la Dahbed

Astăzi, 17 Aprilie, Sâmbătă

Timp Temperatura Precipitaţii Vânt Presiune Umiditate
00:00 +15°C° 0 mm 1 m/s 705 mmHg 34%
01:00 +15°C° 0 mm 1 m/s 705 mmHg 35%
02:00 +14°C° 0 mm 1 m/s 705 mmHg 35%
03:00 +14°C° 0 mm 1 m/s 705 mmHg 35%
04:00 +14°C° 0 mm 1 m/s 706 mmHg 35%
05:00 +15°C° 0 mm 1 m/s 706 mmHg 34%
06:00 +16°C° 0 mm 1 m/s 706 mmHg 33%
07:00 +18°C° 0 mm 1 m/s 707 mmHg 33%
08:00 +19°C° 0 mm 2 m/s 707 mmHg 30%
09:00 +20°C° 0 mm 2 m/s 707 mmHg 27%
10:00 +23°C° 0 mm 2 m/s 707 mmHg 24%
11:00 +24°C° 0 mm 2 m/s 707 mmHg 22%
12:00 +24°C° 0 mm 2 m/s 707 mmHg 21%
13:00 +25°C° 0 mm 3 m/s 707 mmHg 20%
14:00 +25°C° 0 mm 3 m/s 707 mmHg 22%
15:00 +24°C° 0 mm 3 m/s 707 mmHg 23%
16:00 +23°C° 0 mm 4 m/s 707 mmHg 24%
17:00 +21°C° 0 mm 3 m/s 707 mmHg 27%
18:00 +20°C° 0 mm 3 m/s 707 mmHg 31%
19:00 +18°C° 0 mm 2 m/s 707 mmHg 34%
20:00 +18°C° 0 mm 2 m/s 707 mmHg 34%
21:00 +18°C° 0 mm 2 m/s 707 mmHg 34%
22:00 +18°C° 0 mm 1 m/s 707 mmHg 34%
23:00 +18°C° 0 mm 1 m/s 707 mmHg 36%

Mâine, 18 Aprilie, Duminică

Timp Temperatura Precipitaţii Vânt Presiune Umiditate
00:00 +16°C° 0 mm 1 m/s 707 mmHg 37%
01:00 +16°C° 0 mm 1 m/s 707 mmHg 38%
02:00 +16°C° 0 mm 1 m/s 707 mmHg 39%
03:00 +16°C° 0 mm 1 m/s 707 mmHg 39%
04:00 +15°C° 0 mm 1 m/s 707 mmHg 39%
05:00 +16°C° 0 mm 1 m/s 708 mmHg 39%
06:00 +18°C° 0 mm 1 m/s 708 mmHg 38%
07:00 +19°C° 0 mm 1 m/s 709 mmHg 37%
08:00 +21°C° 0 mm 1 m/s 709 mmHg 33%
09:00 +22°C° 0 mm 1 m/s 709 mmHg 29%
10:00 +23°C° 0 mm 2 m/s 710 mmHg 24%
11:00 +24°C° 0 mm 2 m/s 709 mmHg 23%
12:00 +24°C° 0 mm 2 m/s 709 mmHg 21%
13:00 +25°C° 0 mm 2 m/s 709 mmHg 19%
14:00 +25°C° 0 mm 2 m/s 709 mmHg 19%
15:00 +25°C° 0 mm 2 m/s 709 mmHg 19%
16:00 +25°C° 0 mm 2 m/s 708 mmHg 19%
17:00 +23°C° 0 mm 2 m/s 708 mmHg 22%
18:00 +21°C° 0 mm 1 m/s 708 mmHg 26%
19:00 +20°C° 0 mm 1 m/s 708 mmHg 29%
20:00 +19°C° 0 mm 1 m/s 707 mmHg 30%
21:00 +18°C° 0 mm 1 m/s 707 mmHg 32%
22:00 +18°C° 0 mm 1 m/s 707 mmHg 33%
23:00 +16°C° 0 mm 1 m/s 707 mmHg 33%

Poimâine, 19 Aprilie, Luni

Timp Temperatura Precipitaţii Vânt Presiune Umiditate
00:00 +16°C° 0 mm 1 m/s 706 mmHg 34%
01:00 +16°C° 0 mm 1 m/s 706 mmHg 34%
02:00 +15°C° 0 mm 1 m/s 706 mmHg 34%
03:00 +15°C° 0 mm 2 m/s 706 mmHg 34%
04:00 +15°C° 0 mm 2 m/s 706 mmHg 34%
05:00 +16°C° 0 mm 2 m/s 706 mmHg 34%
06:00 +17°C° 0 mm 2 m/s 706 mmHg 33%
07:00 +19°C° 0 mm 2 m/s 706 mmHg 32%
08:00 +20°C° 0 mm 2 m/s 706 mmHg 29%
09:00 +21°C° 0 mm 2 m/s 706 mmHg 26%
10:00 +24°C° 0 mm 2 m/s 706 mmHg 23%
11:00 +25°C° 0 mm 2 m/s 706 mmHg 22%
12:00 +25°C° 0 mm 2 m/s 705 mmHg 21%
13:00 +26°C° 0 mm 2 m/s 705 mmHg 20%
14:00 +25°C° 0 mm 2 m/s 705 mmHg 21%
15:00 +25°C° 0 mm 3 m/s 704 mmHg 22%
16:00 +25°C° 0 mm 3 m/s 704 mmHg 23%
17:00 +22°C° 0 mm 3 m/s 704 mmHg 26%
18:00 +21°C° 0 mm 3 m/s 704 mmHg 30%
19:00 +19°C° 0 mm 3 m/s 704 mmHg 33%
20:00 +19°C° 0 mm 2 m/s 703 mmHg 34%
21:00 +18°C° 0 mm 2 m/s 703 mmHg 35%
22:00 +17°C° 0 mm 2 m/s 703 mmHg 36%
23:00 +17°C° 0 mm 2 m/s 703 mmHg 37%

20 Aprilie, Marţi

Timp Temperatura Precipitaţii Vânt Presiune Umiditate
00:00 +16°C° 0 mm 2 m/s 702 mmHg 38%
01:00 +16°C° 0 mm 2 m/s 702 mmHg 39%
02:00 +16°C° 0 mm 2 m/s 702 mmHg 39%
03:00 +15°C° 0 mm 2 m/s 702 mmHg 40%
04:00 +15°C° 0 mm 1 m/s 702 mmHg 41%
05:00 +16°C° 0 mm 1 m/s 702 mmHg 40%
06:00 +18°C° 0 mm 1 m/s 703 mmHg 38%
07:00 +20°C° 0 mm 1 m/s 703 mmHg 37%
08:00 +20°C° 0 mm 3 m/s 703 mmHg 34%
09:00 +21°C° 0 mm 4 m/s 704 mmHg 31%
10:00 +22°C° 0 mm 6 m/s 704 mmHg 29%
11:00 +22°C° 0 mm 5 m/s 704 mmHg 29%
12:00 +22°C° 0 mm 5 m/s 704 mmHg 29%
13:00 +22°C° 0 mm 5 m/s 704 mmHg 29%
14:00 +21°C° 0 mm 5 m/s 704 mmHg 32%
15:00 +21°C° 0 mm 5 m/s 703 mmHg 36%
16:00 +20°C° 0 mm 5 m/s 703 mmHg 39%
17:00 +19°C° 0 mm 4 m/s 703 mmHg 43%
18:00 +18°C° 0 mm 3 m/s 703 mmHg 47%
19:00 +16°C° 0 mm 3 m/s 704 mmHg 52%
20:00 +16°C° 0 mm 2 m/s 703 mmHg 53%
21:00 +16°C° 0 mm 2 m/s 703 mmHg 55%
22:00 +15°C° 0 mm 2 m/s 703 mmHg 57%
23:00 +15°C° 0 mm 2 m/s 703 mmHg 58%

21 Aprilie, Miercuri

Timp Temperatura Precipitaţii Vânt Presiune Umiditate
00:00 +15°C° 0 mm 2 m/s 703 mmHg 59%
01:00 +15°C° 0 mm 2 m/s 703 mmHg 60%
02:00 +14°C° 0.1 mm 2 m/s 703 mmHg 64%
03:00 +14°C° 0.1 mm 2 m/s 703 mmHg 69%
04:00 +13°C° 0.1 mm 2 m/s 703 mmHg 73%
05:00 +14°C° 0.1 mm 2 m/s 703 mmHg 72%
06:00 +14°C° 0.1 mm 2 m/s 704 mmHg 71%
07:00 +14°C° 0.1 mm 3 m/s 705 mmHg 69%
08:00 +16°C° 0.3 mm 3 m/s 705 mmHg 63%
09:00 +17°C° 0.3 mm 2 m/s 705 mmHg 56%
10:00 +19°C° 0.3 mm 2 m/s 705 mmHg 50%
11:00 +19°C° 0.2 mm 2 m/s 705 mmHg 46%
12:00 +20°C° 0.2 mm 3 m/s 705 mmHg 43%
13:00 +21°C° 0.2 mm 3 m/s 705 mmHg 40%
14:00 +20°C° 0.1 mm 4 m/s 705 mmHg 43%
15:00 +19°C° 0.1 mm 4 m/s 705 mmHg 45%
16:00 +19°C° 0.1 mm 5 m/s 706 mmHg 48%
17:00 +17°C° 0 mm 5 m/s 706 mmHg 50%
18:00 +15°C° 0 mm 5 m/s 706 mmHg 52%
19:00 +14°C° 0 mm 5 m/s 706 mmHg 55%
20:00 +13°C° 0 mm 5 m/s 707 mmHg 57%
21:00 +12°C° 0 mm 4 m/s 707 mmHg 58%
22:00 +10°C° 0 mm 4 m/s 707 mmHg 60%
23:00 +10°C° 0 mm 4 m/s 707 mmHg 62%

22 Aprilie, Joi

Timp Temperatura Precipitaţii Vânt Presiune Umiditate
00:00 +8°C° 0 mm 4 m/s 707 mmHg 64%
01:00 +8°C° 0 mm 3 m/s 707 mmHg 66%
02:00 +8°C° 0 mm 3 m/s 707 mmHg 66%
03:00 +7°C° 0 mm 3 m/s 707 mmHg 67%
04:00 +7°C° 0 mm 3 m/s 707 mmHg 67%
05:00 +8°C° 0 mm 3 m/s 708 mmHg 62%
06:00 +8°C° 0 mm 4 m/s 708 mmHg 56%
07:00 +10°C° 0 mm 4 m/s 708 mmHg 51%
08:00 +12°C° 0 mm 4 m/s 708 mmHg 45%
09:00 +13°C° 0 mm 4 m/s 708 mmHg 40%
10:00 +16°C° 0 mm 3 m/s 709 mmHg 34%
11:00 +18°C° 0 mm 4 m/s 709 mmHg 32%
12:00 +19°C° 0 mm 4 m/s 708 mmHg 30%
13:00 +20°C° 0 mm 4 m/s 708 mmHg 27%
14:00 +19°C° 0 mm 5 m/s 708 mmHg 28%
15:00 +19°C° 0 mm 5 m/s 709 mmHg 29%
16:00 +17°C° 0 mm 6 m/s 709 mmHg 30%
17:00 +15°C° 0 mm 5 m/s 709 mmHg 35%
18:00 +14°C° 0 mm 4 m/s 709 mmHg 40%
19:00 +12°C° 0 mm 3 m/s 709 mmHg 45%
20:00 +11°C° 0 mm 3 m/s 709 mmHg 47%
21:00 +11°C° 0 mm 3 m/s 709 mmHg 49%
22:00 +10°C° 0 mm 3 m/s 708 mmHg 50%
23:00 +10°C° 0 mm 3 m/s 708 mmHg 53%
Arată mai mult

Formular de consimțământ

Meteoprog și furnizorii noștri de servicii pot stoca și accesa date personale, precum cookies, identificatori de dispozitiv sau alte tehnologii similare pe dispozitivul dumneavoastră și procesa astfel de date pentru a personaliza conținutul și reclamele, dar și pentru a oferi caracteristici de social media și pentru a analiza traficul.

  • Stocarea și/sau accesarea informațiilor pe dispozitivul dumneavoastră

    Cookies, identificatori de dispozitiv sau alte informații pot fi stocate sau accesate pe dispozitiv în scopurile indicate mai sus.

  • Reclame și conținut personalizat, evaluarea reclamelor și a conținutului, informații despre audiențe și dezvoltarea produselor

    Reclamele și conținutul pot fi personalizate pe baza unui profil. Pot fi adăugate date suplimentare pentru a personaliza mai bine reclamele și conținutul. Performanța reclamelor și conținutului poate fi măsurată. Pot fi obținute informații despre utilizatorii care au văzut reclamele și conținutul. Aceste date pot fi utilizate pentru a dezvolta sau îmbunătăți experiența utilizatorilor, sistemele și software-ul.

Dând clic pe ‘Sunt de acord’, permiteți utilizarea cookie-urilor menționate, a identificatorilor de dispozitiv, balizelor web sau altor tehnologii similare. Setările pot fi modificate din browser-ul dispozitivului dumneavoastră.

În anumite scopuri, interesele legitime pot prima asupra consimțământului. Puteți citi mai multe informații în acest sens în Politica privind Confidențialitatea Datelor și Cookie.